Change the Weather History Date:

Monday, November 18, 2013

  Actual Average Record
Temperature  
Mean Temperature 66 °F -  
Max Temperature 78 °F 62 °F 80 °F (1978)
Min Temperature 56 °F 42 °F 22 °F (2014)
Cooling Degree Days 2    
Growing Degree Days 16 (Base 50)    
Moisture  
Dew Point 56 °F    
Average Humidity 70    
Maximum Humidity 97    
Minimum Humidity 37    
Precipitation  
Precipitation 0.01 in - - ()
Sea Level Pressure  
Sea Level Pressure 29.88 in    
Wind  
Wind Speed 9 mph (West)    
Max Wind Speed 13 mph    
Max Gust Speed 20 mph    
Visibility 10 miles    
Events Rain    
Averages and records for this station are not official NWS values.
T = Trace of Precipitation, MM = Missing Value Source: NWS Daily Summary

Daily Weather History Graph

Daily Weather History Graph

Search for Another Location

Airport or City:

Trip Planner

Search our weather history database for the weather conditions in past years. The results will help you decide how hot, cold, wet, or windy it might be!

Date:

Astronomy

Nov. 18, 2013 Rise Set
Actual Time 6:48 AM EST 5:02 PM EST
Civil Twilight 6:21 AM EST 5:29 PM EST
Nautical Twilight 5:50 AM EST 6:00 PM EST
Astronomical Twilight 5:20 AM EST 6:30 PM EST
Moon 6:03 PM EST (11/18) 7:35 AM EST (11/18)
Length of Visible Light 11h 08m
Length of Day
10h 13m
Full, 99% of the Moon is Illuminated
Nov 18
Full
Nov 25
Last Quarter
Dec 2
New
Dec 9
First Quarter
Dec 17
Full

Hourly Weather History & Observations

Time (EST) Temp. Dew Point Humidity Pressure Visibility Wind Dir Wind Speed Gust Speed Precip Events Conditions
12:15 AM 68.4 °F 67.5 °F 97% 29.94 in 10.0 mi South 12.7 mph 18.4 mph N/A   Overcast
12:35 AM 68.5 °F 67.5 °F 96% 29.93 in 7.0 mi SSW 11.5 mph 17.3 mph N/A   Overcast
12:55 AM 68.7 °F 67.5 °F 96% 29.92 in 10.0 mi SSW 10.4 mph - N/A   Overcast
1:15 AM 68.9 °F 67.5 °F 95% 29.92 in 10.0 mi South 11.5 mph 16.1 mph N/A   Overcast
1:35 AM 68.9 °F 67.5 °F 95% 29.91 in 10.0 mi SSW 9.2 mph - N/A   Overcast
1:55 AM 68.9 °F 67.1 °F 94% 29.89 in 10.0 mi SSW 11.5 mph - N/A   Overcast
2:15 AM 69.1 °F 67.3 °F 94% 29.89 in 10.0 mi SSW 11.5 mph - N/A   Overcast
2:35 AM 69.6 °F 67.1 °F 92% 29.88 in 10.0 mi SSW 12.7 mph 18.4 mph N/A   Overcast
2:55 AM 69.8 °F 67.3 °F 92% 29.87 in 10.0 mi SW 10.4 mph - N/A   Overcast
3:15 AM 69.8 °F 67.3 °F 92% 29.86 in 10.0 mi SSW 12.7 mph 19.6 mph N/A   Overcast
3:35 AM 70.0 °F 67.3 °F 91% 29.86 in 10.0 mi SW 11.5 mph 17.3 mph N/A   Overcast
3:55 AM 70.2 °F 67.5 °F 91% 29.86 in 10.0 mi SSW 10.4 mph 18.4 mph N/A   Overcast
4:15 AM 70.3 °F 67.5 °F 91% 29.86 in 10.0 mi SW 10.4 mph - N/A   Overcast
4:35 AM 70.7 °F 67.6 °F 90% 29.87 in 10.0 mi SW 9.2 mph 16.1 mph N/A   Overcast
4:55 AM 70.7 °F 67.5 °F 89% 29.86 in 10.0 mi SW 10.4 mph - N/A   Overcast
5:15 AM 70.7 °F 67.6 °F 90% 29.86 in 10.0 mi SW 9.2 mph - N/A   Overcast
5:35 AM 70.9 °F 67.6 °F 89% 29.86 in 10.0 mi SW 11.5 mph 16.1 mph N/A   Overcast
5:55 AM 70.7 °F 67.8 °F 91% 29.85 in 10.0 mi SW 9.2 mph - N/A   Overcast
6:56 AM 71.6 °F 68.0 °F 88% 29.87 in 5.0 mi WSW 8.1 mph - N/A Rain Rain
7:56 AM 69.8 °F 68.0 °F 94% 29.88 in 7.0 mi SW 8.1 mph - N/A   Scattered Clouds
9:56 AM 71.6 °F 59.0 °F 64% 29.90 in 10.0 mi North 6.9 mph - N/A   Scattered Clouds
10:56 AM 73.4 °F 53.6 °F 50% 29.89 in 10.0 mi NNE 5.8 mph - N/A   Clear
11:56 AM 75.2 °F 51.8 °F 44% 29.84 in 10.0 mi West 4.6 mph - N/A   Clear
12:56 PM 77.0 °F 51.8 °F 41% 29.82 in 10.0 mi Calm Calm - N/A   Clear
1:56 PM 77.0 °F 51.8 °F 41% 29.80 in 10.0 mi WSW 4.6 mph - N/A   Clear
2:56 PM 77.0 °F 51.8 °F 41% 29.79 in 10.0 mi NW 4.6 mph - N/A   Clear
3:56 PM 75.2 °F 51.8 °F 44% 29.81 in 10.0 mi NW 9.2 mph - N/A   Clear
4:56 PM 71.6 °F 51.8 °F 50% 29.82 in 10.0 mi Calm Calm - N/A   Clear
5:56 PM 62.6 °F 55.4 °F 77% 29.84 in 10.0 mi Calm Calm - N/A   Scattered Clouds
6:56 PM 64.4 °F 53.6 °F 68% 29.86 in 10.0 mi North 4.6 mph - N/A   Scattered Clouds
7:56 PM 59.0 °F 53.6 °F 82% 29.88 in 10.0 mi NNW 3.5 mph - N/A   Clear
8:15 PM 60.8 °F 51.3 °F 71% 29.88 in 10.0 mi North 6.9 mph - N/A   Scattered Clouds
8:35 PM 61.9 °F 48.7 °F 62% 29.88 in 10.0 mi NNW 5.8 mph - N/A   Clear
8:55 PM 61.0 °F 46.6 °F 59% 29.89 in 10.0 mi North 3.5 mph - N/A   Clear
8:56 PM 60.8 °F 46.4 °F 59% 29.89 in 10.0 mi North 3.5 mph - N/A   Clear
9:15 PM 59.4 °F 45.1 °F 59% 29.90 in 10.0 mi NNW 5.8 mph - N/A   Clear
9:35 PM 59.4 °F 44.1 °F 57% 29.90 in 10.0 mi NNW 4.6 mph - N/A   Clear
9:55 PM 59.9 °F 42.1 °F 52% 29.91 in 10.0 mi NNW 5.8 mph - N/A   Clear
9:56 PM 59.0 °F 41.0 °F 51% 29.91 in 10.0 mi North 5.8 mph - N/A   Clear
10:15 PM 60.1 °F 37.6 °F 43% 29.91 in 10.0 mi NNW 10.4 mph - N/A   Clear
10:35 PM 60.1 °F 33.8 °F 37% 29.92 in 10.0 mi NNW 8.1 mph - N/A   Clear
10:55 PM 58.8 °F 33.3 °F 38% 29.93 in 10.0 mi NNW 6.9 mph - N/A   Clear
11:15 PM 58.1 °F 32.7 °F 38% 29.93 in 10.0 mi NNW 8.1 mph - N/A   Clear
11:35 PM 56.8 °F 32.2 °F 39% 29.94 in 10.0 mi NNW 8.1 mph - N/A   Clear
11:55 PM 56.3 °F 32.0 °F 40% 29.94 in 10.0 mi NNW 6.9 mph - N/A   Clear